Weather History for KGNC - March, 2013

Change the Weather History Date:

Saturday, March 2, 2013

  Actual Average (KHOB) Record (KHOB)
Temperature  
Mean Temperature 46 °F -  
Max Temperature 64 °F 61 °F 80 °F (1955)
Min Temperature 27 °F 33 °F 1 °F (2002)
Degree Days  
Heating Degree Days 20    
Moisture  
Dew Point 19 °F    
Average Humidity 39    
Maximum Humidity 74    
Minimum Humidity 17    
Precipitation  
Precipitation 0.00 in - - ()
Sea Level Pressure  
Sea Level Pressure 30.33 in    
Wind  
Wind Speed 2 mph (West)    
Max Wind Speed 9 mph    
Max Gust Speed 16 mph    
Visibility 10 miles    
Events      
Averages and records for this station are not official NWS values.
T = Trace of Precipitation, MM = Missing Value Source: NWS Daily Summary

Daily Weather History Graph

Daily Weather History Graph

Search for Another Location

Airport or City:

Trip Planner

Search our weather history database for the weather conditions in past years. The results will help you decide how hot, cold, wet, or windy it might be!

Date:

Astronomy

Mar. 02, 2013 Rise Set
Actual Time 7:16 AM CST 6:48 PM CST
Civil Twilight 6:52 AM CST 7:13 PM CST
Nautical Twilight 6:23 AM CST 7:42 PM CST
Astronomical Twilight 5:55 AM CST 8:10 PM CST
Moon No Moon Rise 10:05 AM CST (3/2)
Length of Visible Light 12h 21m
Length of Day
11h 32m
Waning Gibbous, 74% of the Moon is Illuminated
Mar 2
Waning Gibbous
Mar 4
Last Quarter
Mar 11
New
Mar 19
First Quarter
Mar 27
Full

Hourly Weather History & Observations

Time (CST) Temp. Windchill Dew Point Humidity Pressure Visibility Wind Dir Wind Speed Gust Speed Precip Events Conditions
12:35 AM 36.9 °F - 17.6 °F 46% 30.34 in 10.0 mi Calm Calm - N/A   Clear
12:55 AM 35.8 °F - 17.6 °F 48% 30.34 in 10.0 mi Calm Calm - N/A   Clear
1:15 AM 34.2 °F - 18.1 °F 52% 30.35 in 10.0 mi Calm Calm - N/A   Clear
1:35 AM 32.5 °F 26.2 °F 18.5 °F 56% 30.36 in 10.0 mi NNW 6.9 mph - N/A   Clear
1:55 AM 32.4 °F 26.9 °F 18.9 °F 58% 30.36 in 10.0 mi NNW 5.8 mph - N/A   Clear
2:15 AM 31.6 °F 25.1 °F 19.0 °F 60% 30.36 in 10.0 mi NW 6.9 mph - N/A   Clear
2:35 AM 33.3 °F 27.9 °F 19.4 °F 57% 30.38 in 10.0 mi NE 5.8 mph - N/A   Clear
2:55 AM 32.9 °F 28.5 °F 19.4 °F 58% 30.38 in 10.0 mi NE 4.6 mph - N/A   Clear
3:15 AM 33.6 °F 29.4 °F 19.9 °F 57% 30.38 in 10.0 mi NE 4.6 mph - N/A   Clear
3:35 AM 32.9 °F - 20.1 °F 59% 30.37 in 10.0 mi Calm Calm - N/A   Clear
3:55 AM 32.5 °F - 20.1 °F 60% 30.37 in 10.0 mi Calm Calm - N/A   Clear
4:15 AM 32.2 °F - 20.1 °F 61% 30.38 in 10.0 mi Calm Calm - N/A   Clear
4:35 AM 32.2 °F - 20.1 °F 61% 30.38 in 10.0 mi Calm Calm - N/A   Clear
4:55 AM 30.6 °F - 20.1 °F 65% 30.38 in 10.0 mi Calm Calm - N/A   Clear
5:15 AM 30.0 °F - 19.9 °F 66% 30.38 in 10.0 mi Calm Calm - N/A   Clear
5:35 AM 29.1 °F - 20.1 °F 69% 30.38 in 10.0 mi Calm Calm - N/A   Clear
5:55 AM 28.9 °F - 20.1 °F 70% 30.39 in 10.0 mi Calm Calm - N/A   Clear
6:15 AM 29.5 °F - 20.3 °F 69% 30.39 in 10.0 mi Calm Calm - N/A   Clear
6:35 AM 29.3 °F - 20.3 °F 69% 30.39 in 10.0 mi Calm Calm - N/A   Clear
6:55 AM 27.0 °F - 19.6 °F 74% 30.40 in 10.0 mi Calm Calm - N/A   Clear
7:15 AM 27.5 °F - 19.8 °F 73% 30.40 in 10.0 mi Calm Calm - N/A   Clear
7:35 AM 27.9 °F - 20.3 °F 73% 30.41 in 10.0 mi Calm Calm - N/A   Clear
7:55 AM 30.4 °F - 21.6 °F 70% 30.42 in 10.0 mi Calm Calm - N/A   Clear
8:15 AM 33.6 °F - 22.3 °F 63% 30.42 in 10.0 mi Calm Calm - N/A   Clear
8:35 AM 36.5 °F 32.7 °F 22.5 °F 57% 30.42 in 10.0 mi West 4.6 mph - N/A   Clear
8:55 AM 38.7 °F 34.3 °F 22.8 °F 53% 30.43 in 10.0 mi WSW 5.8 mph - N/A   Clear
9:15 AM 40.5 °F 35.8 °F 21.9 °F 48% 30.44 in 10.0 mi WSW 6.9 mph - N/A   Clear
9:35 AM 43.3 °F 39.2 °F 20.7 °F 40% 30.44 in 10.0 mi WSW 6.9 mph - N/A   Clear
9:55 AM 44.8 °F - 21.0 °F 39% 30.44 in 10.0 mi Calm Calm - N/A   Clear
10:15 AM 47.3 °F - 21.2 °F 36% 30.43 in 10.0 mi West 5.8 mph - N/A   Clear
10:35 AM 49.3 °F - 21.4 °F 33% 30.43 in 10.0 mi West 6.9 mph - N/A   Clear
10:55 AM 51.8 °F - 22.1 °F 31% 30.42 in 10.0 mi West 6.9 mph - N/A   Clear
11:15 AM 53.1 °F - 21.2 °F 29% 30.41 in 10.0 mi West 6.9 mph - N/A   Clear
11:35 AM 54.9 °F - 21.7 °F 28% 30.41 in 10.0 mi West 4.6 mph - N/A   Clear
11:55 AM 56.7 °F - 22.6 °F 27% 30.40 in 10.0 mi NW 5.8 mph - N/A   Clear
12:35 PM 58.3 °F - 21.6 °F 24% 30.39 in 10.0 mi WSW 5.8 mph - N/A   Clear
12:55 PM 60.3 °F - 19.6 °F 21% 30.38 in 10.0 mi WNW 9.2 mph - N/A   Clear
1:15 PM 60.4 °F - 18.3 °F 20% 30.37 in 10.0 mi Calm Calm - N/A   Clear
1:35 PM 61.9 °F - 18.3 °F 19% 30.36 in 10.0 mi West 6.9 mph - N/A   Clear
1:55 PM 61.7 °F - 18.3 °F 19% 30.34 in 10.0 mi WSW 6.9 mph - N/A   Clear
2:15 PM 62.6 °F - 18.3 °F 18% 30.33 in 10.0 mi Calm Calm - N/A   Clear
2:35 PM 62.4 °F - 18.7 °F 19% 30.32 in 10.0 mi Calm Calm - N/A   Clear
2:55 PM 63.7 °F - 18.7 °F 18% 30.31 in 10.0 mi WSW 8.1 mph - N/A   Clear
3:15 PM 63.1 °F - 18.1 °F 18% 30.30 in 10.0 mi WSW 4.6 mph - N/A   Clear
3:35 PM 63.7 °F - 17.8 °F 17% 30.29 in 10.0 mi Calm Calm - N/A   Clear
3:55 PM 64.0 °F - 17.6 °F 17% 30.28 in 10.0 mi WSW 4.6 mph - N/A   Clear
4:15 PM 64.2 °F - 17.8 °F 17% 30.28 in 10.0 mi WSW 8.1 mph - N/A   Clear
4:35 PM 64.4 °F - 18.0 °F 17% 30.28 in 10.0 mi West 9.2 mph 16.1 mph N/A   Clear
4:55 PM 64.0 °F - 17.8 °F 17% 30.27 in 10.0 mi SW 3.5 mph - N/A   Clear
5:15 PM 64.4 °F - 17.8 °F 17% 30.26 in 10.0 mi West 4.6 mph - N/A   Clear
5:35 PM 64.0 °F - 17.4 °F 17% 30.26 in 10.0 mi Calm Calm - N/A   Clear
5:55 PM 63.5 °F - 17.2 °F 17% 30.26 in 10.0 mi West 6.9 mph - N/A   Clear
6:15 PM 62.8 °F - 17.4 °F 17% 30.26 in 10.0 mi Calm Calm - N/A   Clear
6:35 PM 61.0 °F - 17.6 °F 19% 30.26 in 10.0 mi Calm Calm - N/A   Clear
6:55 PM 57.6 °F - 18.1 °F 22% 30.26 in 10.0 mi Calm Calm - N/A   Clear
7:15 PM 54.9 °F - 18.3 °F 24% 30.26 in 10.0 mi Calm Calm - N/A   Clear
7:35 PM 53.6 °F - 18.0 °F 25% 30.25 in 10.0 mi Calm Calm - N/A   Clear
7:55 PM 52.5 °F - 18.1 °F 26% 30.25 in 10.0 mi Calm Calm - N/A   Clear
8:15 PM 51.4 °F - 17.6 °F 26% 30.25 in 10.0 mi Calm Calm - N/A   Clear
8:35 PM 50.4 °F - 18.1 °F 28% 30.24 in 10.0 mi Calm Calm - N/A   Clear
8:55 PM 48.6 °F - 18.1 °F 30% 30.24 in 10.0 mi Calm Calm - N/A   Clear
9:15 PM 48.6 °F - 17.8 °F 29% 30.24 in 10.0 mi Calm Calm - N/A   Clear
9:35 PM 47.5 °F - 18.0 °F 31% 30.24 in 10.0 mi Calm Calm - N/A   Clear
9:55 PM 46.9 °F - 17.6 °F 31% 30.24 in 10.0 mi Calm Calm - N/A   Clear
10:15 PM 46.6 °F - 17.6 °F 32% 30.23 in 10.0 mi Calm Calm - N/A   Clear
10:35 PM 47.5 °F - 17.6 °F 30% 30.23 in 10.0 mi Calm Calm - N/A   Clear
10:55 PM 47.5 °F - 17.6 °F 30% 30.23 in 10.0 mi Calm Calm - N/A   Clear
11:15 PM 46.0 °F - 17.6 °F 32% 30.23 in 10.0 mi Calm Calm - N/A   Clear
11:35 PM 46.6 °F - 17.2 °F 31% 30.23 in 10.0 mi Calm Calm - N/A   Clear
11:55 PM 46.0 °F - 17.2 °F 32% 30.22 in 10.0 mi Calm Calm - N/A   Clear